Location: Cussy
(47.0410°N, 4.6412°E)
Time: 06:34:03
(UTC+00:00)

Cosmos 1151 Rocket - Pass Details

Date: 30 November 2020
Orbit: 593 x 615 km, 82.5° (Epoch: 18 January)

Event Time Altitude Azimuth Distance (km) Brightness Sun altitude
Rises 16:53:29 0° 174° (S) 2,833 6.7 -9.8°
Reaches altitude 10° 16:55:43 10° 169° (S) 1,932 5.7 -10.2°
Maximum altitude 16:59:51 50° 94° (E) 766 3.2 -10.8°
Drops below altitude 10° 17:03:59 10° 19° (NNE) 1,940 5.2 -11.5°
Enters shadow 17:05:53 - 15° (NNE) 2,703 6.0 -11.8°
